STARLINK-1360 (45588 NORAD) Tracking and Keplerian Element Data

This shows tracking and keplerian element data for the satellite.

Feedback or suggestion? Click here.




ElementValue
Catalog45588
NameSTARLINK-1360
Epoch Orbit183
Epoch Day188.91667824
Epoch Year2020
RAAN30.3826
Inclination52.9969
Eccentricity0.0003159
Argument of Perigee15.0233
Mean Anonmoly346.3471
Mean Motion15.62811446
Decay Rate-0.00076423
L11 45588U 20025BK 20188.91667824 -.00076423 00000-0 -83446-3 0 9993
L22 45588 52.9969 30.3826 0003159 15.0233 346.3471 15.62811446 1834

Live tracking and technical data element details for STARLINK-1360 (NORAD 45588). STARLINK-1360 can be tracked NOW for your location showing map with azimuth and elevation plus other details from your city location.

Track the satellite on the map from your city or location and see movement details for azimuth, elevation, latitude, longitude, range, height, and movement on the map or in text.







IsCatalogInMostPopularTable: catalog: 45588, numindb: 30
Update: records affected: 1



GetName: 45588 STARLINK-1360

Hit Count: updated at: Wed, 08 Jul 2020 05:26:10 GMT